TimeCDT,TemperatureF,Dew PointF,Humidity,Sea Level PressureIn,VisibilityMPH,Wind Direction,Wind SpeedMPH,Gust SpeedMPH,PrecipitationIn,Events,Conditions,WindDirDegrees,DateUTC
12:52 AM,32.0,19.9,61,30.32,10.0,Calm,Calm,-,N/A,,Partly Cloudy,0,2013-03-29 05:52:00
1:52 AM,32.0,19.0,59,30.32,10.0,Calm,Calm,-,N/A,,Partly Cloudy,0,2013-03-29 06:52:00
2:52 AM,35.1,19.0,52,30.31,10.0,West,3.5,-,N/A,,Clear,270,2013-03-29 07:52:00
3:52 AM,32.0,18.0,56,30.31,10.0,Calm,Calm,-,N/A,,Clear,0,2013-03-29 08:52:00
4:52 AM,30.0,19.0,64,30.30,10.0,Calm,Calm,-,N/A,,Clear,0,2013-03-29 09:52:00
5:52 AM,33.1,19.0,56,30.31,10.0,WNW,3.5,-,N/A,,Partly Cloudy,290,2013-03-29 10:52:00
6:52 AM,32.0,19.9,61,30.32,10.0,WNW,5.8,-,N/A,,Clear,290,2013-03-29 11:52:00
7:52 AM,36.0,19.9,52,30.32,10.0,West,5.8,-,N/A,,Clear,280,2013-03-29 12:52:00
8:52 AM,42.1,19.9,41,30.32,10.0,West,5.8,-,N/A,,Clear,270,2013-03-29 13:52:00
9:52 AM,45.0,19.9,37,30.33,10.0,West,6.9,-,N/A,,Clear,280,2013-03-29 14:52:00
10:52 AM,46.9,19.0,33,30.34,10.0,WNW,9.2,-,N/A,,Clear,290,2013-03-29 15:52:00
11:52 AM,46.9,26.1,44,30.32,10.0,ENE,10.4,-,N/A,,Clear,60,2013-03-29 16:52:00
12:52 PM,45.0,27.0,49,30.32,10.0,NE,10.4,-,N/A,,Partly Cloudy,50,2013-03-29 17:52:00
1:52 PM,43.0,28.9,58,30.32,10.0,ENE,10.4,-,N/A,,Clear,60,2013-03-29 18:52:00
2:52 PM,43.0,21.9,43,30.30,10.0,NE,10.4,-,N/A,,Clear,50,2013-03-29 19:52:00
3:52 PM,43.0,24.1,47,30.29,10.0,ENE,8.1,-,N/A,,Clear,70,2013-03-29 20:52:00
4:52 PM,43.0,19.0,38,30.28,10.0,NE,8.1,-,N/A,,Clear,50,2013-03-29 21:52:00
5:52 PM,41.0,19.9,43,30.29,10.0,NE,9.2,-,N/A,,Clear,50,2013-03-29 22:52:00
6:52 PM,37.9,19.9,48,30.29,10.0,ENE,3.5,-,N/A,,Clear,70,2013-03-29 23:52:00
7:52 PM,37.9,19.9,48,30.28,10.0,Calm,Calm,-,N/A,,Partly Cloudy,0,2013-03-30 00:52:00
8:52 PM,34.0,21.0,59,30.29,10.0,Calm,Calm,-,N/A,,Partly Cloudy,0,2013-03-30 01:52:00
9:52 PM,34.0,21.0,59,30.28,10.0,Calm,Calm,-,N/A,,Partly Cloudy,0,2013-03-30 02:52:00
10:52 PM,34.0,21.0,59,30.27,10.0,SW,3.5,-,N/A,,Clear,220,2013-03-30 03:52:00
11:52 PM,33.1,21.0,61,30.26,10.0,Calm,Calm,-,N/A,,Clear,0,2013-03-30 04:52:00